Weather History for KBAF - October, 2011

Change the Weather History Date:

Wednesday, October 19, 2011

  Actual Average Record
Temperature  
Mean Temperature 50 °F -  
Max Temperature 55 °F 58 °F 70 °F (2007)
Min Temperature 46 °F 35 °F 25 °F (1999)
Degree Days  
Heating Degree Days 14    
Moisture  
Dew Point 49 °F    
Average Humidity 89    
Maximum Humidity 97    
Minimum Humidity 76    
Precipitation  
Precipitation 0.87 in - - ()
Sea Level Pressure  
Sea Level Pressure 29.78 in    
Wind  
Wind Speed 7 mph (North)    
Max Wind Speed 13 mph    
Max Gust Speed -    
Visibility 6 miles    
Events Rain    
Averages and records for this station are not official NWS values.
T = Trace of Precipitation, MM = Missing Value Source: NWS Daily Summary

Daily Weather History Graph

Daily Weather History Graph

Search for Another Location

Airport or City:

Trip Planner

Search our weather history database for the weather conditions in past years. The results will help you decide how hot, cold, wet, or windy it might be!

Date:

Astronomy

Oct. 19, 2011 Rise Set
Actual Time 7:07 AM EDT 6:03 PM EDT
Civil Twilight 6:39 AM EDT 6:31 PM EDT
Nautical Twilight 6:06 AM EDT 7:04 PM EDT
Astronomical Twilight 5:34 AM EDT 7:36 PM EDT
Moon 11:43 PM EDT (10/19) 1:39 PM EDT (10/19)
Length of Visible Light 11h 52m
Length of Day
10h 55m
Waning Gibbous, 55% of the Moon is Illuminated
Oct 19
Waning Gibbous
Oct 19
Last Quarter
Oct 26
New
Nov 2
First Quarter
Nov 10
Full

Hourly Weather History & Observations

Time (EDT) Temp. Dew Point Humidity Pressure Visibility Wind Dir Wind Speed Gust Speed Precip Events Conditions
12:53 AM 46.9 °F 44.1 °F 90% 29.95 in 10.0 mi Calm Calm - N/A   Mostly Cloudy
1:53 AM 48.0 °F 43.0 °F 83% 29.93 in 10.0 mi Calm Calm - N/A   Clear
2:53 AM 48.0 °F 43.0 °F 83% 29.92 in 10.0 mi North 4.6 mph - N/A   Clear
3:53 AM 48.9 °F 42.1 °F 77% 29.91 in 10.0 mi NNE 6.9 mph - N/A   Clear
4:53 AM 48.9 °F 42.1 °F 77% 29.92 in 10.0 mi North 6.9 mph - N/A   Scattered Clouds
5:53 AM 48.0 °F 42.1 °F 80% 29.92 in 10.0 mi North 4.6 mph - N/A   Clear
6:53 AM 50.0 °F 43.0 °F 77% 29.93 in 10.0 mi North 5.8 mph - 0.00 in Rain Light Rain
7:53 AM 50.0 °F 43.0 °F 77% 29.94 in 10.0 mi North 6.9 mph - 0.00 in   Overcast
8:53 AM 50.0 °F 45.0 °F 83% 29.95 in 10.0 mi North 8.1 mph - 0.01 in Rain Light Rain
9:46 AM 51.8 °F 44.6 °F 76% 29.90 in 10.0 mi North 10.4 mph - 0.01 in Rain Light Rain
9:53 AM 51.1 °F 45.0 °F 80% 29.91 in 10.0 mi North 10.4 mph - 0.01 in Rain Light Rain
10:53 AM 52.0 °F 46.9 °F 83% 29.88 in 8.0 mi NNE 9.2 mph - 0.03 in Rain Rain
11:10 AM 51.8 °F 46.4 °F 82% 29.87 in 10.0 mi North 8.1 mph - 0.00 in Rain Light Rain
11:53 AM 51.1 °F 48.0 °F 89% 29.88 in 2.5 mi NNE 8.1 mph - 0.13 in Rain Heavy Rain
12:53 PM 53.1 °F 51.1 °F 93% 29.85 in 5.0 mi North 6.9 mph - 0.21 in Rain Rain
1:39 PM 53.6 °F 51.8 °F 94% 29.81 in 4.0 mi North 11.5 mph - 0.07 in Rain Light Rain
1:42 PM 53.6 °F 51.8 °F 94% 29.81 in 2.0 mi North 9.2 mph - 0.07 in Rain Light Rain
1:53 PM 54.0 °F 52.0 °F 93% 29.80 in 2.0 mi North 11.5 mph - 0.08 in Rain Light Rain
2:53 PM 55.0 °F 52.0 °F 89% 29.76 in 2.0 mi NNE 12.7 mph - 0.05 in Rain Rain
3:53 PM 54.0 °F 52.0 °F 93% 29.75 in 2.0 mi North 11.5 mph - 0.08 in Rain Rain
4:53 PM 54.0 °F 53.1 °F 97% 29.73 in 2.0 mi North 12.7 mph - 0.13 in Rain Light Rain
4:58 PM 53.6 °F 51.8 °F 94% 29.72 in 3.0 mi North 12.7 mph - 0.01 in Rain Light Rain
5:05 PM 53.6 °F 51.8 °F 94% 29.72 in 2.5 mi North 11.5 mph - 0.02 in Rain Rain
5:34 PM 53.6 °F 51.8 °F 94% 29.71 in 1.8 mi North 12.7 mph - 0.06 in Rain Rain
5:42 PM 53.6 °F 51.8 °F 94% 29.71 in 2.5 mi NNE 12.7 mph - 0.06 in Rain Light Rain
5:51 PM 53.6 °F 51.8 °F 94% 29.71 in 4.0 mi North 11.5 mph - 0.07 in Rain Light Rain
5:53 PM 54.0 °F 52.0 °F 93% 29.72 in 4.0 mi North 10.4 mph - 0.07 in Rain Light Rain
6:53 PM 54.0 °F 51.1 °F 90% 29.70 in 5.0 mi NNE 12.7 mph - 0.02 in Rain Light Rain
7:53 PM 53.1 °F 51.1 °F 93% 29.68 in 10.0 mi NNE 11.5 mph - 0.01 in Rain Light Rain
8:53 PM 53.1 °F 51.1 °F 93% 29.67 in 10.0 mi North 11.5 mph - 0.01 in   Overcast
9:53 PM 53.1 °F 51.1 °F 93% 29.65 in 5.0 mi NNE 8.1 mph - 0.01 in Rain Light Rain
10:28 PM 53.6 °F 51.8 °F 94% 29.62 in 6.0 mi North 11.5 mph - 0.00 in Rain Light Rain
10:50 PM 53.6 °F 51.8 °F 94% 29.61 in 5.0 mi North 10.4 mph - 0.00 in Rain Light Rain
10:53 PM 54.0 °F 52.0 °F 93% 29.61 in 7.0 mi North 11.5 mph - 0.00 in Rain Light Rain
11:23 PM 53.6 °F 51.8 °F 94% 29.58 in 10.0 mi NNE 9.2 mph - 0.00 in Rain Light Rain
11:32 PM 53.6 °F 51.8 °F 94% 29.58 in 9.0 mi NNE 9.2 mph - 0.00 in Rain Light Rain
11:53 PM 54.0 °F 52.0 °F 93% 29.58 in 5.0 mi North 8.1 mph - 0.02 in Rain Light Rain